EW0401 Weather Reports


time (UTC)temp
F
wind
direction
speed
knots
gust
knots
rain 1hr
in
rain 24hr
in
rain mn
in
humidity
%
barometer
mb
20260505153059 75 0 0.0 6.1 0.00 0.00 0.00 88 1010.7
20260505151603 75 0 0.9 7.8 0.00 0.00 0.00 87 1010.5
20260505124554 74 215 0.0 4.3 0.00 0.00 0.00 86 1010.1
20260505123059 74 232 0.9 6.1 0.00 0.00 0.00 86 1009.9
20260505121557 74 0 0.0 6.1 0.00 0.00 0.00 86 1009.7
20260505120111 74 199 0.0 2.6 0.00 0.00 0.00 86 1010.1
20260505114554 74 0 0.0 5.2 0.00 0.00 0.00 86 1009.6
20260505113053 73 232 0.9 4.3 0.00 0.00 0.00 86 1009.7
20260505111556 73 202 0.0 4.3 0.00 0.00 0.00 86 1009.7
20260505110110 73 0 0.9 6.1 0.00 0.00 0.00 86 1009.8
20260505101551 73 0 0.0 2.6 0.00 0.00 0.00 86 1009.8
20260505100053 73 0 0.0 3.5 0.00 0.00 0.00 86 1009.7
20260505094550 73 0 0.0 3.5 0.00 0.00 0.00 86 1009.8
20260505093051 73 0 0.0 3.5 0.00 0.00 0.00 85 1009.9
20260505091555 73 0 0.9 4.3 0.00 0.00 0.00 85 1009.9
20260505090051 73 240 0.9 4.3 0.00 0.00 0.00 85 1010.1
20260505084602 73 0 0.9 3.5 0.00 0.00 0.00 85 1009.9
20260505083105 73 244 0.9 5.2 0.00 0.00 0.00 85 1010.0
20260505081554 73 0 0.9 6.1 0.00 0.00 0.00 85 1010.1
20260505080100 73 0 1.7 7.0 0.00 0.00 0.00 85 1010.2
20260505074554 73 264 0.9 5.2 0.00 0.00 0.00 85 1010.4
20260505073101 73 240 0.0 4.3 0.00 0.00 0.00 85 1010.3
20260505071555 73 246 0.9 6.1 0.00 0.00 0.00 85 1010.4
20260505070100 72 208 0.9 7.8 0.00 0.00 0.00 84 1010.7
20260505064636 72 0 0.9 7.8 0.00 0.00 0.00 84 1010.8
20260505063053 72 243 0.0 4.3 0.00 0.00 0.00 84 1011.1
20260505061555 72 0 0.9 4.3 0.00 0.00 0.00 84 1011.3
20260505060058 72 236 0.0 6.1 0.00 0.00 0.00 84 1011.3
20260505054558 72 252 0.9 4.3 0.00 0.00 0.00 84 1011.4
20260505053057 72 0 0.0 3.5 0.00 0.00 0.00 84 1011.5
20260505051555 72 0 0.0 6.1 0.00 0.00 0.00 84 1011.5
20260505050110 72 0 0.0 4.3 0.00 0.00 0.00 83 1011.6
20260505041603 72 0 0.0 3.5 0.00 0.00 0.00 83 1012.0
20260505040104 72 0 0.0 5.2 0.00 0.00 0.00 83 1011.9
20260505034611 72 0 0.0 5.2 0.00 0.00 0.00 82 1012.2
20260505033055 72 239 0.0 3.5 0.00 0.00 0.00 82 1012.0
20260505031606 73 0 0.0 3.5 0.00 0.00 0.00 82 1012.1
20260505030122 73 250 0.0 2.6 0.00 0.00 0.00 81 1012.1
20260505024610 73 0 0.9 3.5 0.00 0.00 0.00 80 1012.1
20260505023054 73 209 0.0 3.5 0.00 0.00 0.00 81 1012.1
20260505021554 73 0 0.0 4.3 0.00 0.00 0.00 80 1012.0
20260505020104 73 192 0.9 4.3 0.00 0.00 0.00 80 1011.8
20260505014551 73 221 0.0 6.1 0.00 0.00 0.00 80 1011.8
20260505013050 73 0 0.9 6.1 0.00 0.00 0.00 79 1011.9
20260505011556 73 207 0.0 2.6 0.00 0.00 0.00 79 1011.9
20260505010110 73 0 0.0 3.5 0.00 0.00 0.00 78 1011.7
20260505004620 74 194 0.0 5.2 0.00 0.00 0.00 77 1011.7
20260505003100 74 0 0.0 2.6 0.00 0.00 0.00 76 1011.7
20260505001552 75 0 0.9 2.6 0.00 0.00 0.00 75 1011.8
20260505000104 75 0 0.9 5.2 0.00 0.00 0.00 75 1011.8
20260504234555 75 276 0.9 6.1 0.00 0.00 0.00 75 1012.0
20260504233051 76 181 0.0 4.3 0.00 0.00 0.00 74 1012.1
20260504231620 76 0 0.0 7.0 0.00 0.00 0.00 73 1012.2
20260504230053 76 184 0.0 8.7 0.00 0.00 0.00 72 1012.4
20260504224550 77 219 0.0 7.0 0.00 0.00 0.00 72 1012.4
20260504223054 77 186 0.9 4.3 0.00 0.00 0.00 71 1012.8
20260504221631 77 202 0.9 4.3 0.00 0.00 0.00 70 1012.7
20260504220054 78 209 0.9 7.8 0.00 0.00 0.00 68 1012.7
20260504214551 79 180 0.9 4.3 0.00 0.00 0.00 68 1013.0
20260504213059 79 0 0.9 5.2 0.00 0.00 0.00 66 1013.2
20260504211555 81 196 0.9 4.3 0.00 0.00 0.00 65 1013.3
20260504210054 81 0 0.9 11.3 0.00 0.00 0.00 64 1013.7
20260504204555 80 226 0.9 5.2 0.00 0.00 0.00 66 1013.5
20260504203053 80 88 0.9 7.8 0.00 0.00 0.00 66 1013.8
20260504201555 80 0 0.9 7.8 0.00 0.00 0.00 65 1014.0
20260504200055 81 173 0.0 6.1 0.00 0.00 0.00 65 1014.1
20260504194602 81 303 0.9 6.1 0.00 0.00 0.00 65 1014.4
20260504193053 82 0 0.0 4.3 0.00 0.00 0.00 65 1014.7
20260504191618 81 177 0.9 5.2 0.00 0.00 0.00 64 1014.7
20260504190053 81 186 0.0 6.1 0.00 0.00 0.00 66 1014.8
20260504184605 81 184 0.9 5.2 0.00 0.00 0.00 65 1014.9
20260504183054 80 0 0.9 6.1 0.00 0.00 0.00 66 1014.9
20260504181556 80 0 0.0 7.8 0.00 0.00 0.00 67 1015.1
20260504180054 79 248 0.9 12.2 0.00 0.00 0.00 65 1015.3
20260504174552 79 273 0.0 5.2 0.00 0.00 0.00 65 1015.4
20260504173054 79 0 0.9 7.0 0.00 0.00 0.00 65 1015.7
20260504171553 78 0 1.7 8.7 0.00 0.00 0.00 69 1016.1